KN4IED-WX Weather Reports


Display with metric or nautical units.
time (UTC)temp
F
wind
direction
speed
MPH
gust
MPH
rain 1hr
in
rain 24hr
in
rain mn
in
humidity
%
barometer
mb
20260507192548 73 241 3.0 8.0 0.00 3.87 1.84 67 1010.8
20260507191524 73 203 5.0 11.0 0.00 3.87 1.84 67 1011.0
20260507190541 72 285 2.0 7.0 0.00 3.87 1.84 69 1011.1
20260507185537 72 240 2.0 11.0 0.00 3.87 1.84 71 1011.1
20260507184533 72 257 2.0 9.0 0.00 3.87 1.84 71 1011.1
20260507183529 71 204 2.0 9.0 0.00 3.87 1.84 74 1011.1
20260507182526 72 219 2.0 8.0 0.00 3.87 1.84 73 1011.1
20260507181522 72 222 3.0 12.0 0.00 3.87 1.84 75 1011.1
20260507180559 73 212 4.0 13.0 0.00 3.87 1.84 74 1011.1
20260507175535 73 220 4.0 12.0 0.00 3.87 1.84 74 1011.1
20260507174531 72 231 3.0 5.0 0.00 3.87 1.84 77 1011.2
20260507173528 72 220 4.0 12.0 0.00 3.87 1.84 76 1011.1
20260507172524 72 219 4.0 8.0 0.00 3.87 1.84 77 1011.0
20260507171521 72 213 3.0 7.0 0.00 3.87 1.84 80 1011.1
20260507170517 70 198 3.0 5.0 0.00 3.87 1.84 84 1011.1
20260507165554 70 359 1.0 3.0 0.00 3.87 1.84 85 1011.1
20260507164550 69 178 3.0 6.0 0.00 3.87 1.84 85 1011.3
20260507163526 70 204 4.0 9.0 0.00 3.87 1.84 83 1011.3
20260507162523 69 34 1.0 4.0 0.00 3.87 1.84 86 1011.2
20260507161520 68 194 2.0 4.0 0.00 3.87 1.84 89 1011.1
20260507160516 67 256 1.0 3.0 0.00 3.87 1.84 90 1011.1
20260507155552 67 160 2.0 4.0 0.00 3.87 1.84 92 1011.1
20260507154529 66 179 2.0 5.0 0.00 3.87 1.84 93 1010.9
20260507153525 65 204 1.0 2.0 0.00 3.87 1.83 97 1011.4
20260507152522 64 115 0.0 2.0 0.02 3.87 1.83 98 1011.4
20260507151518 64 194 1.0 3.0 0.05 3.87 1.83 99 1011.6
20260507150554 63 189 1.0 3.0 0.09 3.87 1.83 99 1011.6
20260507145551 63 208 2.0 4.0 0.10 3.87 1.83 99 1011.6
20260507144527 63 201 2.0 4.0 0.10 3.87 1.83 99 1011.5
20260507143524 63 58 1.0 3.0 0.11 3.87 1.83 99 1011.5
20260507142520 63 137 1.0 3.0 0.12 3.85 1.82 99 1011.6
20260507141517 63 256 0.0 2.0 0.13 3.82 1.78 99 1011.8
20260507140553 63 61 1.0 2.0 0.13 3.78 1.74 99 1011.5
20260507135530 63 81 2.0 5.0 0.15 3.77 1.74 99 1010.5
20260507134526 63 65 1.0 4.0 0.17 3.77 1.73 99 1010.8
20260507133543 63 66 1.0 4.0 0.26 3.75 1.72 99 1011.0
20260507132519 63 272 1.0 3.0 0.38 3.74 1.70 99 1011.3
20260507131516 63 17 1.0 2.0 0.35 3.69 1.65 99 1011.2
20260507130532 63 114 2.0 4.0 0.32 3.65 1.61 99 1010.9
20260507125528 62 102 2.0 3.0 0.33 3.63 1.59 99 1011.6
20260507124525 62 85 0.0 3.0 0.36 3.60 1.56 99 1011.6
20260507123521 62 81 1.0 2.0 0.29 3.50 1.46 99 1012.1
20260507122518 62 18 0.0 2.0 0.19 3.35 1.32 99 1011.0
20260507121534 62 73 1.0 3.0 0.30 3.34 1.30 99 1010.5
20260507120531 62 82 1.0 3.0 0.36 3.33 1.30 99 1010.4
20260507115527 62 57 1.0 4.0 0.35 3.30 1.26 99 1010.4
20260507114523 63 57 1.0 2.0 0.33 3.24 1.20 99 1010.1
20260507113539 63 71 3.0 6.0 0.35 3.20 1.17 99 1010.3
20260507112516 63 62 4.0 11.0 0.37 3.17 1.13 99 1010.4
20260507111532 63 61 2.0 5.0 0.26 3.04 1.01 99 1010.8
20260507110528 63 23 2.0 3.0 0.20 2.97 0.93 99 1009.7
20260507105524 63 28 1.0 3.0 0.22 2.95 0.92 99 1009.6
20260507104520 63 66 2.0 3.0 0.19 2.91 0.88 99 1009.6
20260507103517 63 55 1.0 2.0 0.13 2.85 0.82 99 1010.0
20260507102533 63 42 1.0 4.0 0.07 2.80 0.76 99 1009.8
20260507101529 63 66 2.0 4.0 0.06 2.79 0.75 99 1010.0
20260507100546 63 69 1.0 2.0 0.05 2.77 0.74 99 1010.5
20260507095523 63 17 0.0 2.0 0.00 2.73 0.69 99 1010.6
20260507094519 63 4 1.0 2.0 0.00 2.73 0.69 99 1010.5
20260507093535 63 104 1.0 2.0 0.01 2.72 0.69 99 1010.5
20260507092532 63 99 0.0 2.0 0.01 2.72 0.69 99 1011.0
20260507091529 63 345 1.0 2.0 0.05 2.72 0.69 99 1011.1
20260507090545 63 99 1.0 2.0 0.06 2.72 0.69 99 1010.9
20260507085602 63 60 1.0 3.0 0.06 2.72 0.69 99 1011.1
20260507084518 63 23 0.0 2.0 0.06 2.72 0.69 99 1011.0
20260507083534 63 59 1.0 3.0 0.06 2.72 0.68 99 1011.1
20260507082531 63 126 1.0 2.0 0.05 2.71 0.68 99 1011.2
20260507081528 63 71 1.0 3.0 0.02 2.67 0.64 99 1011.2
20260507080524 63 176 0.0 2.0 0.00 2.66 0.63 99 1011.6
20260507075520 63 120 1.0 2.0 0.01 2.66 0.63 99 1011.7
20260507074517 63 70 0.0 2.0 0.02 2.66 0.63 99 1011.7
20260507073533 63 43 0.0 2.0 0.03 2.66 0.63 99 1011.4
20260507072530 63 82 1.0 3.0 0.03 2.66 0.63 99 1011.3
20260507071606 63 36 1.0 2.0 0.04 2.66 0.62 99 1011.6
20260507070523 63 5 0.0 2.0 0.06 2.66 0.62 99 1011.7
20260507065519 63 105 1.0 2.0 0.09 2.65 0.61 99 1011.9
20260507064515 63 233 1.0 3.0 0.17 2.64 0.61 99 1012.2
20260507063533 63 104 1.0 3.0 0.25 2.63 0.60 99 1012.2
20260507062529 63 46 2.0 4.0 0.31 2.63 0.59 99 1011.9
20260507061525 63 45 1.0 3.0 0.37 2.62 0.59 99 1012.6
20260507060522 63 145 2.0 4.0 0.39 2.60 0.56 98 1012.5
20260507055518 64 58 0.0 2.0 0.38 2.56 0.52 98 1013.3
20260507054535 64 52 1.0 3.0 0.33 2.47 0.43 98 1013.5
20260507053531 64 111 0.0 2.0 0.26 2.39 0.35 98 1013.5
20260507052528 64 164 1.0 2.0 0.19 2.32 0.29 98 1013.6
20260507051524 64 48 0.0 2.0 0.16 2.25 0.21 98 1013.7
20260507050521 64 111 1.0 4.0 0.15 2.21 0.18 98 1013.0
20260507045518 64 179 2.0 3.0 0.16 2.18 0.14 98 1012.9
20260507044534 64 126 1.0 4.0 0.14 2.14 0.11 98 1013.1
20260507043530 64 161 0.0 2.0 0.15 2.13 0.09 98 1013.0
20260507042527 64 186 1.0 3.0 0.25 2.13 0.09 98 1013.0
20260507041523 64 164 1.0 4.0 0.28 2.09 0.05 98 1013.2
20260507040540 64 91 2.0 3.0 0.32 2.07 0.03 98 1013.3
20260507035516 64 162 1.0 4.0 0.30 2.02 2.02 98 1013.6
20260507034613 64 139 2.0 4.0 0.30 2.00 2.00 98 1013.5
20260507033529 64 184 1.0 3.0 0.29 1.98 1.98 98 1013.5
20260507032526 64 24 1.0 3.0 0.25 1.88 1.88 98 1013.7
20260507031522 64 21 2.0 4.0 0.32 1.81 1.81 98 1013.8
20260507030519 64 86 2.0 4.0 0.50 1.74 1.74 97 1013.4
20260507025535 64 87 2.0 3.0 0.51 1.72 1.72 97 1013.7
20260507024532 64 156 1.0 3.0 0.50 1.70 1.70 97 1013.8
20260507023529 64 128 3.0 6.0 0.82 1.69 1.69 97 1013.7
20260507022525 64 222 3.0 7.0 1.04 1.63 1.63 97 1014.2
20260507021522 64 78 2.0 6.0 1.08 1.49 1.49 96 1013.8
20260507020538 64 147 2.0 4.0 0.88 1.24 1.24 96 1013.2
20260507015555 65 81 3.0 6.0 0.98 1.21 1.21 95 1013.3
20260507014551 65 44 2.0 4.0 0.99 1.20 1.20 94 1013.3
20260507013548 66 40 3.0 5.0 0.67 0.87 0.87 94 1013.1
20260507012524 69 42 3.0 7.0 0.42 0.60 0.60 95 1013.6
20260507011541 69 54 1.0 3.0 0.25 0.41 0.41 95 1013.0
20260507010517 70 58 2.0 4.0 0.25 0.36 0.36 95 1013.4
20260507005533 70 85 1.0 2.0 0.23 0.23 0.23 94 1013.2
20260507004530 70 58 0.0 2.0 0.21 0.21 0.21 93 1013.4
20260507003527 70 46 1.0 3.0 0.20 0.20 0.20 92 1013.2
20260507002523 71 176 1.0 3.0 0.18 0.18 0.18 89 1013.1
20260507001521 72 34 1.0 2.0 0.16 0.16 0.16 86 1012.9
20260507000517 75 334 1.0 3.0 0.11 0.11 0.11 77 1012.2
20260506235532 77 275 1.0 4.0 0.00 0.00 0.00 66 1011.4
20260506234528 78 212 1.0 3.0 0.00 0.00 0.00 65 1010.9
20260506233525 78 217 2.0 4.0 0.00 0.00 0.00 64 1011.3
20260506232521 78 241 2.0 4.0 0.00 0.00 0.00 63 1011.6
20260506231517 78 191 2.0 5.0 0.00 0.00 0.00 63 1011.8
20260506230554 79 236 2.0 4.0 0.00 0.00 0.00 62 1012.2
20260506225550 79 208 4.0 12.0 0.00 0.00 0.00 62 1012.2
20260506224526 79 245 3.0 5.0 0.00 0.00 0.00 61 1012.1
20260506223523 80 213 5.0 13.0 0.00 0.00 0.00 61 1012.1
20260506222519 80 239 3.0 7.0 0.00 0.00 0.00 60 1011.9
20260506221515 80 203 4.0 8.0 0.00 0.00 0.00 59 1011.8
20260506220532 81 240 3.0 8.0 0.00 0.00 0.00 58 1011.7
20260506215528 81 254 4.0 10.0 0.00 0.00 0.00 57 1011.7
20260506214625 80 256 4.0 8.0 0.00 0.00 0.00 57 1011.8
20260506213521 79 231 2.0 5.0 0.00 0.00 0.00 58 1012.0
20260506212518 80 228 2.0 8.0 0.00 0.00 0.00 57 1012.2
20260506211535 80 208 2.0 6.0 0.00 0.00 0.00 57 1012.3
20260506210551 80 242 2.0 6.0 0.00 0.00 0.00 56 1012.5
20260506205527 81 247 6.0 14.0 0.00 0.00 0.00 54 1012.7
20260506204525 82 197 4.0 10.0 0.00 0.00 0.00 52 1012.6
20260506203520 82 231 3.0 10.0 0.00 0.00 0.00 53 1012.6
20260506202537 81 205 3.0 10.0 0.00 0.00 0.00 53 1012.6
20260506201533 82 228 4.0 9.0 0.00 0.00 0.00 53 1012.8
20260506200530 81 213 4.0 9.0 0.00 0.00 0.00 55 1013.0
20260506195546 81 230 4.0 8.0 0.00 0.00 0.00 54 1013.3
20260506194523 81 237 4.0 8.0 0.00 0.00 0.00 55 1013.6
20260506193519 80 212 5.0 10.0 0.00 0.00 0.00 54 1013.7